Year,Month,Day,Hour,Minute,Value (Times are PST for temperature in C)
2010,01,28,00,01,6.50
2010,01,28,00,02,6.50
2010,01,28,00,03,6.50
2010,01,28,00,05,6.50
2010,01,28,00,06,6.50
2010,01,28,00,07,6.40
2010,01,28,00,08,6.50
2010,01,28,00,10,6.40
2010,01,28,00,12,6.40
2010,01,28,00,13,6.40
2010,01,28,00,14,6.40
2010,01,28,00,15,6.40
2010,01,28,00,17,6.40
2010,01,28,00,18,6.40
2010,01,28,00,20,6.40
2010,01,28,00,21,6.40
2010,01,28,00,23,6.40
2010,01,28,00,24,6.40
2010,01,28,00,25,6.40
2010,01,28,00,26,6.40
2010,01,28,00,28,6.40
2010,01,28,00,30,6.40
2010,01,28,00,31,6.40
2010,01,28,00,32,6.40
2010,01,28,00,34,6.40
2010,01,28,00,35,6.40
2010,01,28,00,36,6.40
2010,01,28,00,37,6.40
2010,01,28,00,39,6.40
2010,01,28,00,40,6.40
2010,01,28,00,41,6.30
2010,01,28,00,42,6.30
2010,01,28,00,43,6.30
2010,01,28,00,45,6.30
2010,01,28,00,46,6.30
2010,01,28,00,47,6.40
2010,01,28,00,48,6.30
2010,01,28,00,50,6.30
2010,01,28,00,51,6.30
2010,01,28,00,52,6.30
2010,01,28,00,53,6.30
2010,01,28,00,54,6.30
2010,01,28,00,55,6.30
2010,01,28,00,57,6.30
2010,01,28,00,58,6.30
2010,01,28,01,00,6.30
2010,01,28,01,01,6.30
2010,01,28,01,03,6.30
2010,01,28,01,04,6.30
2010,01,28,01,05,6.30
2010,01,28,01,06,6.30
2010,01,28,01,07,6.30
2010,01,28,01,08,6.30
2010,01,28,01,10,6.30
2010,01,28,01,11,6.40
2010,01,28,01,12,6.40
2010,01,28,01,13,6.40
2010,01,28,01,14,6.40
2010,01,28,01,15,6.40
2010,01,28,01,17,6.40
2010,01,28,01,18,6.40
2010,01,28,01,20,6.40
2010,01,28,01,22,6.40
2010,01,28,01,23,6.40
2010,01,28,01,24,6.30
2010,01,28,01,25,6.30
2010,01,28,01,26,6.30
2010,01,28,01,28,6.30
2010,01,28,01,29,6.30
2010,01,28,01,30,6.30
2010,01,28,01,31,6.30
2010,01,28,01,32,6.30
2010,01,28,01,33,6.30
2010,01,28,01,34,6.30
2010,01,28,01,36,6.20
2010,01,28,01,37,6.20
2010,01,28,01,38,6.20
2010,01,28,01,40,6.20
2010,01,28,01,41,6.30
2010,01,28,01,43,6.20
2010,01,28,01,44,6.30
2010,01,28,01,45,6.30
2010,01,28,01,46,6.30
2010,01,28,01,47,6.30
2010,01,28,01,49,6.30
2010,01,28,01,50,6.30
2010,01,28,01,51,6.20
2010,01,28,01,52,6.30
2010,01,28,01,53,6.30
2010,01,28,01,55,6.30
2010,01,28,01,56,6.30
2010,01,28,01,57,6.30
2010,01,28,01,58,6.30
2010,01,28,02,00,6.30
2010,01,28,02,01,6.30
2010,01,28,02,02,6.30
2010,01,28,02,03,6.30
2010,01,28,02,04,6.30
2010,01,28,02,06,6.30
2010,01,28,02,07,6.30
2010,01,28,02,08,6.30
2010,01,28,02,10,6.30
2010,01,28,02,12,6.30
2010,01,28,02,13,6.30
2010,01,28,02,14,6.30
2010,01,28,02,15,6.30
2010,01,28,02,16,6.30
2010,01,28,02,17,6.30
2010,01,28,02,18,6.30
2010,01,28,02,20,6.30
2010,01,28,02,21,6.30
2010,01,28,02,22,6.30
2010,01,28,02,23,6.30
2010,01,28,02,25,6.30
2010,01,28,02,26,6.30
2010,01,28,02,27,6.30
2010,01,28,02,28,6.30
2010,01,28,02,30,6.30
2010,01,28,02,32,6.30
2010,01,28,02,33,6.30
2010,01,28,02,34,6.30
2010,01,28,02,35,6.30
2010,01,28,02,36,6.30
2010,01,28,02,38,6.30
2010,01,28,02,39,6.40
2010,01,28,02,40,6.40
2010,01,28,02,41,6.40
2010,01,28,02,42,6.40
2010,01,28,02,44,6.50
2010,01,28,02,45,6.50
2010,01,28,02,46,6.50
2010,01,28,02,47,6.50
2010,01,28,02,49,6.50
2010,01,28,02,50,6.40
2010,01,28,02,51,6.40
2010,01,28,02,52,6.40
2010,01,28,02,53,6.40
2010,01,28,02,55,6.40
2010,01,28,02,56,6.40
2010,01,28,02,57,6.40
2010,01,28,02,58,6.40
2010,01,28,03,00,6.40
2010,01,28,03,01,6.40
2010,01,28,03,02,6.40
2010,01,28,03,03,6.40
2010,01,28,03,04,6.40
2010,01,28,03,06,6.40
2010,01,28,03,07,6.40
2010,01,28,03,08,6.40
2010,01,28,03,09,6.40
2010,01,28,03,12,6.40
2010,01,28,03,13,6.40
2010,01,28,03,14,6.40
2010,01,28,03,15,6.40
2010,01,28,03,17,6.40
2010,01,28,03,18,6.40
2010,01,28,03,19,6.40
2010,01,28,03,21,6.40
2010,01,28,03,22,6.40
2010,01,28,03,23,6.40
2010,01,28,03,24,6.40
2010,01,28,03,26,6.40
2010,01,28,03,27,6.40
2010,01,28,03,28,6.40
2010,01,28,03,30,6.40
2010,01,28,03,32,6.30
2010,01,28,03,33,6.30
2010,01,28,03,35,6.30
2010,01,28,03,36,6.30
2010,01,28,03,37,6.30
2010,01,28,03,38,6.30
2010,01,28,03,39,6.30
2010,01,28,03,42,6.30
2010,01,28,03,43,6.30
2010,01,28,03,44,6.30
2010,01,28,03,45,6.30
2010,01,28,03,47,6.40
2010,01,28,03,48,6.40
2010,01,28,03,50,6.40
2010,01,28,03,51,6.40
2010,01,28,03,53,6.40
2010,01,28,03,54,6.40
2010,01,28,03,55,6.40
2010,01,28,03,56,6.30
2010,01,28,03,57,6.30
2010,01,28,03,59,6.30
2010,01,28,04,00,6.30
2010,01,28,04,02,6.30
2010,01,28,04,03,6.30
2010,01,28,04,05,6.30
2010,01,28,04,06,6.30
2010,01,28,04,07,6.30
2010,01,28,04,08,6.30
2010,01,28,04,09,6.30
2010,01,28,04,11,6.30
2010,01,28,04,12,6.30
2010,01,28,04,13,6.30
2010,01,28,04,14,6.30
2010,01,28,04,16,6.30
2010,01,28,04,17,6.30
2010,01,28,04,18,6.30
2010,01,28,04,19,6.30
2010,01,28,04,22,6.30
2010,01,28,04,23,6.30
2010,01,28,04,24,6.30
2010,01,28,04,25,6.30
2010,01,28,04,27,6.30
2010,01,28,04,28,6.30
2010,01,28,04,30,6.30
2010,01,28,04,31,6.30
2010,01,28,04,32,6.30
2010,01,28,04,34,6.30
2010,01,28,04,35,6.30
2010,01,28,04,36,6.30
2010,01,28,04,37,6.30
2010,01,28,04,39,6.30
2010,01,28,04,40,6.30
2010,01,28,04,41,6.30
2010,01,28,04,42,6.30
2010,01,28,04,44,6.30
2010,01,28,04,45,6.30
2010,01,28,04,46,6.30
2010,01,28,04,47,6.30
2010,01,28,04,48,6.30
2010,01,28,04,50,6.30
2010,01,28,04,51,6.30
2010,01,28,04,52,6.30
2010,01,28,04,53,6.30
2010,01,28,04,54,6.40
2010,01,28,04,55,6.40
2010,01,28,04,57,6.40
2010,01,28,04,58,6.40
2010,01,28,05,00,6.40
2010,01,28,05,02,6.40
2010,01,28,05,03,6.40
2010,01,28,05,04,6.40
2010,01,28,05,05,6.40
2010,01,28,05,06,6.40
2010,01,28,05,08,6.40
2010,01,28,05,09,6.40
2010,01,28,05,10,6.40
2010,01,28,05,11,6.40
2010,01,28,05,12,6.40
2010,01,28,05,13,6.50
2010,01,28,05,15,6.50
2010,01,28,05,16,6.50
2010,01,28,05,17,6.50
2010,01,28,05,18,6.50
2010,01,28,05,19,6.50
2010,01,28,05,21,6.50
2010,01,28,05,22,6.50
2010,01,28,05,23,6.50
2010,01,28,05,24,6.50
2010,01,28,05,26,6.50
2010,01,28,05,27,6.50
2010,01,28,05,28,6.50
2010,01,28,05,30,6.50
2010,01,28,05,31,6.50
2010,01,28,05,33,6.50
2010,01,28,05,34,6.50
2010,01,28,05,35,6.50
2010,01,28,05,36,6.40
2010,01,28,05,37,6.40
2010,01,28,05,39,6.50
2010,01,28,05,40,6.50
2010,01,28,05,41,6.50
2010,01,28,05,42,6.50
2010,01,28,05,43,6.50
2010,01,28,05,45,6.50
2010,01,28,05,46,6.50
2010,01,28,05,47,6.50
2010,01,28,05,48,6.50
2010,01,28,05,49,6.50
2010,01,28,05,52,6.50
2010,01,28,05,53,6.50
2010,01,28,05,54,6.50
2010,01,28,05,55,6.60
2010,01,28,05,57,6.60
2010,01,28,05,58,6.60
2010,01,28,06,00,6.60
2010,01,28,06,02,6.60
2010,01,28,06,03,6.60
2010,01,28,06,04,6.60
2010,01,28,06,05,6.60
2010,01,28,06,06,6.60
2010,01,28,06,08,6.60
2010,01,28,06,09,6.60
2010,01,28,06,10,6.70
2010,01,28,06,11,6.70
2010,01,28,06,12,6.70
2010,01,28,06,14,6.70
2010,01,28,06,15,6.70
2010,01,28,06,16,6.70
2010,01,28,06,17,6.70
2010,01,28,06,18,6.70
2010,01,28,06,20,6.70
2010,01,28,06,21,6.70
2010,01,28,06,22,6.70
2010,01,28,06,23,6.70
2010,01,28,06,24,6.70
2010,01,28,06,25,6.70
2010,01,28,06,27,6.70
2010,01,28,06,28,6.70
2010,01,28,06,30,6.70
2010,01,28,06,31,6.70
2010,01,28,06,33,6.70
2010,01,28,06,34,6.70
2010,01,28,06,35,6.70
2010,01,28,06,36,6.70
2010,01,28,06,37,6.70
2010,01,28,06,39,6.70
2010,01,28,06,40,6.70
2010,01,28,06,41,6.70
2010,01,28,06,42,6.70
2010,01,28,06,44,6.70
2010,01,28,06,45,6.70
2010,01,28,06,46,6.70
2010,01,28,06,47,6.70
2010,01,28,06,49,6.70
2010,01,28,06,50,6.70
2010,01,28,06,51,6.70
2010,01,28,06,52,6.70
2010,01,28,06,53,6.70
2010,01,28,06,55,6.70
2010,01,28,06,56,6.70
2010,01,28,06,57,6.70
2010,01,28,06,58,6.70
2010,01,28,07,00,6.70
2010,01,28,07,01,6.70
2010,01,28,07,02,6.70
2010,01,28,07,03,6.70
2010,01,28,07,04,6.70
2010,01,28,07,06,6.70
2010,01,28,07,07,6.70
2010,01,28,07,08,6.70
2010,01,28,07,09,6.60
2010,01,28,07,12,6.60
2010,01,28,07,13,6.60
2010,01,28,07,14,6.60
2010,01,28,07,15,6.60
2010,01,28,07,16,6.60
2010,01,28,07,18,6.60
2010,01,28,07,20,6.60
2010,01,28,07,21,6.70
2010,01,28,07,23,6.60
2010,01,28,07,24,6.60
2010,01,28,07,25,6.70
2010,01,28,07,26,6.70
2010,01,28,07,27,6.70
2010,01,28,07,28,6.70
2010,01,28,07,30,6.70
2010,01,28,07,31,6.70
2010,01,28,07,32,6.70
2010,01,28,07,33,6.70
2010,01,28,07,34,6.70
2010,01,28,07,36,6.70
2010,01,28,07,37,6.70
2010,01,28,07,38,6.70
2010,01,28,07,40,6.70
2010,01,28,07,42,6.70
2010,01,28,07,43,6.70
2010,01,28,07,44,6.70
2010,01,28,07,45,6.70
2010,01,28,07,46,6.70
2010,01,28,07,47,6.70
2010,01,28,07,49,6.70
2010,01,28,07,50,6.70
2010,01,28,07,51,6.70
2010,01,28,07,52,6.70
2010,01,28,07,53,6.70
2010,01,28,07,55,6.70
2010,01,28,07,56,6.70
2010,01,28,07,57,6.60
2010,01,28,07,58,6.70
2010,01,28,08,00,6.70
2010,01,28,08,02,6.70
2010,01,28,08,03,6.70
2010,01,28,08,04,6.70
2010,01,28,08,06,6.70
2010,01,28,08,07,6.60
2010,01,28,08,08,6.60
2010,01,28,08,10,6.60
2010,01,28,08,12,6.60
2010,01,28,08,13,6.60
2010,01,28,08,14,6.60
2010,01,28,08,16,6.60
2010,01,28,08,17,6.60
2010,01,28,08,18,6.60
2010,01,28,08,20,6.60
2010,01,28,08,22,6.60
2010,01,28,08,23,6.60
2010,01,28,08,24,6.60
2010,01,28,08,25,6.60
2010,01,28,08,27,6.60
2010,01,28,08,28,6.60
2010,01,28,08,30,6.60
2010,01,28,08,31,6.60
2010,01,28,08,32,6.60
2010,01,28,08,34,6.60
2010,01,28,08,35,6.60
2010,01,28,08,36,6.60
2010,01,28,08,37,6.60
2010,01,28,08,39,6.60
2010,01,28,08,40,6.70
2010,01,28,08,41,6.70
2010,01,28,08,42,6.70
2010,01,28,08,43,6.70
2010,01,28,08,44,6.80
2010,01,28,08,46,6.80
2010,01,28,08,47,6.80
2010,01,28,08,48,6.80
2010,01,28,08,50,6.90
2010,01,28,08,52,6.90
2010,01,28,08,53,6.90
2010,01,28,08,54,6.90
2010,01,28,08,55,6.90
2010,01,28,08,56,6.90
2010,01,28,08,58,6.90
2010,01,28,08,59,7.00
2010,01,28,09,00,7.00
2010,01,28,09,02,7.00
2010,01,28,09,03,7.10
2010,01,28,09,05,7.10
2010,01,28,09,06,7.10
2010,01,28,09,07,7.10
2010,01,28,09,08,7.10
2010,01,28,09,10,7.10
2010,01,28,09,11,7.10
2010,01,28,09,12,7.10
2010,01,28,09,13,7.10
2010,01,28,09,14,7.10
2010,01,28,09,16,7.10
2010,01,28,09,17,7.10
2010,01,28,09,18,7.10
2010,01,28,09,20,7.10
2010,01,28,09,22,7.10
2010,01,28,09,23,7.10
2010,01,28,09,24,7.20
2010,01,28,09,25,7.20
2010,01,28,09,26,7.20
2010,01,28,09,28,7.20
2010,01,28,09,30,7.10
2010,01,28,09,31,7.10
2010,01,28,09,32,7.10
2010,01,28,09,34,7.10
2010,01,28,09,35,7.10
2010,01,28,09,36,7.10
2010,01,28,09,37,7.10
2010,01,28,09,39,7.10
2010,01,28,09,40,7.10
2010,01,28,09,41,7.10
2010,01,28,09,42,7.10
2010,01,28,09,43,7.10
2010,01,28,09,45,7.10
2010,01,28,09,46,7.10
2010,01,28,09,47,7.10
2010,01,28,09,48,7.20
2010,01,28,09,50,7.20
2010,01,28,09,51,7.20
2010,01,28,09,52,7.20
2010,01,28,09,53,7.20
2010,01,28,09,54,7.20
2010,01,28,09,56,7.20
2010,01,28,09,57,7.20
2010,01,28,09,58,7.30
2010,01,28,10,00,7.30
2010,01,28,10,02,7.30
2010,01,28,10,03,7.30
2010,01,28,10,04,7.40
2010,01,28,10,05,7.40
2010,01,28,10,07,7.40
2010,01,28,10,08,7.40
2010,01,28,10,10,7.50
2010,01,28,10,11,7.50
2010,01,28,10,13,7.50
2010,01,28,10,14,7.50
2010,01,28,10,15,7.60
2010,01,28,10,16,7.60
2010,01,28,10,17,7.60
2010,01,28,10,19,7.60
2010,01,28,10,20,7.60
2010,01,28,10,21,7.70
2010,01,28,10,22,7.70
2010,01,28,10,24,7.70
2010,01,28,10,25,7.70
2010,01,28,10,26,7.70
2010,01,28,10,27,7.70
2010,01,28,10,28,7.70
2010,01,28,10,30,7.70
2010,01,28,10,33,7.80
2010,01,28,10,34,7.80
2010,01,28,10,35,7.80
2010,01,28,10,37,7.90
2010,01,28,10,38,7.90
2010,01,28,10,40,8.00
2010,01,28,10,41,8.00
2010,01,28,10,43,8.10
2010,01,28,10,44,8.10
2010,01,28,10,45,8.10
2010,01,28,10,46,8.10
2010,01,28,10,48,8.10
2010,01,28,10,50,8.10
2010,01,28,10,51,8.10
2010,01,28,10,53,8.10
2010,01,28,10,54,8.10
2010,01,28,10,55,8.10
2010,01,28,10,56,8.20
2010,01,28,10,58,8.20
2010,01,28,11,00,8.20
2010,01,28,11,03,8.20
2010,01,28,11,04,8.20
2010,01,28,11,05,8.20
2010,01,28,11,06,8.20
2010,01,28,11,08,8.20
2010,01,28,11,09,8.30
2010,01,28,11,10,8.30
2010,01,28,11,11,8.30
2010,01,28,11,12,8.30
2010,01,28,11,14,8.30
2010,01,28,11,15,8.30
2010,01,28,11,16,8.30
2010,01,28,11,17,8.30
2010,01,28,11,19,8.30
2010,01,28,11,20,8.30
2010,01,28,11,21,8.30
2010,01,28,11,22,8.30
2010,01,28,11,23,8.30
2010,01,28,11,25,8.30
2010,01,28,11,26,8.30
2010,01,28,11,27,8.30
2010,01,28,11,28,8.30
2010,01,28,11,30,8.30
2010,01,28,11,31,8.30
2010,01,28,11,33,8.30
2010,01,28,11,34,8.40
2010,01,28,11,35,8.30
2010,01,28,11,36,8.30
2010,01,28,11,38,8.30
2010,01,28,11,40,8.30
2010,01,28,11,41,8.30
2010,01,28,11,43,8.30
2010,01,28,11,44,8.30
2010,01,28,11,45,8.30
2010,01,28,11,46,8.30
2010,01,28,11,47,8.40
2010,01,28,11,49,8.40
2010,01,28,11,50,8.40
2010,01,28,11,52,8.40
2010,01,28,11,54,8.40
2010,01,28,11,55,8.50
2010,01,28,11,56,8.50
2010,01,28,11,57,8.50
2010,01,28,11,59,8.50
2010,01,28,12,02,8.50
2010,01,28,12,03,8.50
2010,01,28,12,05,8.50
2010,01,28,12,06,8.50
2010,01,28,12,07,8.40
2010,01,28,12,08,8.40
2010,01,28,12,09,8.30
2010,01,28,12,12,8.30
2010,01,28,12,13,8.30
2010,01,28,12,14,8.30
2010,01,28,12,15,8.30
2010,01,28,12,17,8.30
2010,01,28,12,18,8.20
2010,01,28,12,20,8.20
2010,01,28,12,22,8.20
2010,01,28,12,23,8.20
2010,01,28,12,24,8.20
2010,01,28,12,25,8.20
2010,01,28,12,26,8.20
2010,01,28,12,28,8.10
2010,01,28,12,29,8.10
2010,01,28,12,30,8.10
2010,01,28,12,31,8.10
2010,01,28,12,32,8.10
2010,01,28,12,33,8.00
2010,01,28,12,34,8.00
2010,01,28,12,36,7.90
2010,01,28,12,37,7.90
2010,01,28,12,38,7.90
2010,01,28,12,40,7.90
2010,01,28,12,42,7.90
2010,01,28,12,43,7.90
2010,01,28,12,44,8.00
2010,01,28,12,45,8.00
2010,01,28,12,46,8.00
2010,01,28,12,48,8.10
2010,01,28,12,49,8.10
2010,01,28,12,50,8.10
2010,01,28,12,51,8.10
2010,01,28,12,52,8.20
2010,01,28,12,54,8.20
2010,01,28,12,55,8.20
2010,01,28,12,56,8.20
2010,01,28,12,57,8.30
2010,01,28,12,58,8.30
2010,01,28,13,00,8.30
2010,01,28,13,02,8.30
2010,01,28,13,03,8.30
2010,01,28,13,04,8.30
2010,01,28,13,06,8.30
2010,01,28,13,07,8.30
2010,01,28,13,08,8.40
2010,01,28,13,09,8.30
2010,01,28,13,12,8.40
2010,01,28,13,13,8.30
2010,01,28,13,14,8.40
2010,01,28,13,15,8.40
2010,01,28,13,17,8.40
2010,01,28,13,18,8.40
2010,01,28,13,19,8.40
2010,01,28,13,22,8.40
2010,01,28,13,23,8.40
2010,01,28,13,24,8.40
2010,01,28,13,25,8.40
2010,01,28,13,27,8.40
2010,01,28,13,28,8.40
2010,01,28,13,30,8.40
2010,01,28,13,33,8.40
2010,01,28,13,34,8.40
2010,01,28,13,35,8.40
2010,01,28,13,36,8.40
2010,01,28,13,37,8.40
2010,01,28,13,39,8.40
2010,01,28,13,40,8.40
2010,01,28,13,41,8.40
2010,01,28,13,42,8.40
2010,01,28,13,43,8.40
2010,01,28,13,45,8.40
2010,01,28,13,46,8.40
2010,01,28,13,47,8.40
2010,01,28,13,48,8.40
2010,01,28,13,50,8.40
2010,01,28,13,51,8.40
2010,01,28,13,52,8.40
2010,01,28,13,53,8.30
2010,01,28,13,54,8.30
2010,01,28,13,56,8.30
2010,01,28,13,57,8.30
2010,01,28,13,58,8.30
2010,01,28,13,59,8.30
2010,01,28,14,02,8.40
2010,01,28,14,03,8.30
2010,01,28,14,04,8.30
2010,01,28,14,06,8.30
2010,01,28,14,07,8.30
2010,01,28,14,08,8.30
2010,01,28,14,09,8.30
2010,01,28,14,12,8.30
2010,01,28,14,13,8.30
2010,01,28,14,14,8.30
2010,01,28,14,15,8.20
2010,01,28,14,17,8.20
2010,01,28,14,18,8.20
2010,01,28,14,20,8.20
2010,01,28,14,21,8.30
2010,01,28,14,23,8.30
2010,01,28,14,24,8.30
2010,01,28,14,25,8.30
2010,01,28,14,26,8.30
2010,01,28,14,28,8.30
2010,01,28,14,29,8.30
2010,01,28,14,30,8.30
2010,01,28,14,31,8.30
2010,01,28,14,32,8.30
2010,01,28,14,33,8.30
2010,01,28,14,34,8.30
2010,01,28,14,36,8.30
2010,01,28,14,37,8.30
2010,01,28,14,38,8.30
2010,01,28,14,40,8.30
2010,01,28,14,42,8.30
2010,01,28,14,43,8.30
2010,01,28,14,44,8.30
2010,01,28,14,45,8.30
2010,01,28,14,46,8.30
2010,01,28,14,48,8.30
2010,01,28,14,50,8.30
2010,01,28,14,52,8.30
2010,01,28,14,53,8.30
2010,01,28,14,54,8.30
2010,01,28,14,55,8.20
2010,01,28,14,56,8.20
2010,01,28,14,57,8.20
2010,01,28,14,59,8.20
2010,01,28,15,00,8.20
2010,01,28,15,01,8.20
2010,01,28,15,02,8.10
2010,01,28,15,03,8.10
2010,01,28,15,05,8.10
2010,01,28,15,06,8.10
2010,01,28,15,07,8.10
2010,01,28,15,09,8.10
2010,01,28,15,10,8.00
2010,01,28,15,11,8.00
2010,01,28,15,12,8.00
2010,01,28,15,13,7.90
2010,01,28,15,14,7.90
2010,01,28,15,16,7.90
2010,01,28,15,17,7.90
2010,01,28,15,18,7.90
2010,01,28,15,20,7.90
2010,01,28,15,22,7.90
2010,01,28,15,23,7.90
2010,01,28,15,24,7.90
2010,01,28,15,25,7.80
2010,01,28,15,27,7.80
2010,01,28,15,28,7.80
2010,01,28,15,30,7.80
2010,01,28,15,32,7.80
2010,01,28,15,33,7.80
2010,01,28,15,35,7.80
2010,01,28,15,36,7.80
2010,01,28,15,37,7.70
2010,01,28,15,38,7.70
2010,01,28,15,39,7.70
2010,01,28,15,41,7.70
2010,01,28,15,42,7.70
2010,01,28,15,43,7.70
2010,01,28,15,44,7.70
2010,01,28,15,45,7.70
2010,01,28,15,47,7.70
2010,01,28,15,48,7.70
2010,01,28,15,50,7.70
2010,01,28,15,51,7.70
2010,01,28,15,53,7.70
2010,01,28,15,54,7.70
2010,01,28,15,55,7.70
2010,01,28,15,56,7.60
2010,01,28,15,57,7.60
2010,01,28,15,59,7.60
2010,01,28,16,00,7.60
2010,01,28,16,01,7.60
2010,01,28,16,02,7.60
2010,01,28,16,03,7.60
2010,01,28,16,05,7.60
2010,01,28,16,06,7.60
2010,01,28,16,07,7.60
2010,01,28,16,08,7.60
2010,01,28,16,10,7.60
2010,01,28,16,11,7.60
2010,01,28,16,12,7.60
2010,01,28,16,13,7.60
2010,01,28,16,14,7.60
2010,01,28,16,15,7.60
2010,01,28,16,17,7.60
2010,01,28,16,18,7.60
2010,01,28,16,19,7.60
2010,01,28,16,22,7.60
2010,01,28,16,23,7.60
2010,01,28,16,24,7.60
2010,01,28,16,25,7.60
2010,01,28,16,26,7.60
2010,01,28,16,28,7.60
2010,01,28,16,29,7.60
2010,01,28,16,30,7.60
2010,01,28,16,31,7.60
2010,01,28,16,32,7.60
2010,01,28,16,33,7.60
2010,01,28,16,34,7.60
2010,01,28,16,36,7.50
2010,01,28,16,37,7.50
2010,01,28,16,38,7.50
2010,01,28,16,40,7.50
2010,01,28,16,42,7.40
2010,01,28,16,43,7.40
2010,01,28,16,44,7.40
2010,01,28,16,45,7.40
2010,01,28,16,46,7.40
2010,01,28,16,48,7.40
2010,01,28,16,50,7.40
2010,01,28,16,51,7.40
2010,01,28,16,52,7.40
2010,01,28,16,54,7.40
2010,01,28,16,55,7.40
2010,01,28,16,56,7.40
2010,01,28,16,57,7.40
2010,01,28,17,00,7.40
2010,01,28,17,01,7.30
2010,01,28,17,02,7.30
2010,01,28,17,03,7.30
2010,01,28,17,05,7.30
2010,01,28,17,06,7.30
2010,01,28,17,07,7.30
2010,01,28,17,08,7.30
2010,01,28,17,10,7.30
2010,01,28,17,11,7.30
2010,01,28,17,12,7.30
2010,01,28,17,13,7.30
2010,01,28,17,14,7.30
2010,01,28,17,16,7.30
2010,01,28,17,17,7.30
2010,01,28,17,18,7.30
2010,01,28,17,20,7.30
2010,01,28,17,22,7.30
2010,01,28,17,23,7.30
2010,01,28,17,24,7.30
2010,01,28,17,25,7.30
2010,01,28,17,26,7.30
2010,01,28,17,28,7.30
2010,01,28,17,30,7.30
2010,01,28,17,31,7.40
2010,01,28,17,32,7.40
2010,01,28,17,34,7.40
2010,01,28,17,35,7.40
2010,01,28,17,36,7.40
2010,01,28,17,37,7.40
2010,01,28,17,38,7.40
2010,01,28,17,40,7.40
2010,01,28,17,41,7.40
2010,01,28,17,42,7.50
2010,01,28,17,43,7.50
2010,01,28,17,44,7.50
2010,01,28,17,46,7.50
2010,01,28,17,47,7.50
2010,01,28,17,48,7.60
2010,01,28,17,50,7.60
2010,01,28,17,51,7.60
2010,01,28,17,53,7.60
2010,01,28,17,54,7.60
2010,01,28,17,55,7.60
2010,01,28,17,56,7.60
2010,01,28,17,58,7.60
2010,01,28,17,59,7.50
2010,01,28,18,00,7.50
2010,01,28,18,01,7.50
2010,01,28,18,02,7.50
2010,01,28,18,04,7.50
2010,01,28,18,05,7.40
2010,01,28,18,06,7.40
2010,01,28,18,07,7.40
2010,01,28,18,09,7.40
2010,01,28,18,10,7.40
2010,01,28,18,11,7.40
2010,01,28,18,12,7.40
2010,01,28,18,13,7.40
2010,01,28,18,15,7.30
2010,01,28,18,16,7.30
2010,01,28,18,17,7.30
2010,01,28,18,18,7.30
2010,01,28,18,19,7.30
2010,01,28,18,21,7.30
2010,01,28,18,22,7.30
2010,01,28,18,23,7.30
2010,01,28,18,24,7.30
2010,01,28,18,26,7.30
2010,01,28,18,27,7.30
2010,01,28,18,28,7.30
2010,01,28,18,30,7.30
2010,01,28,18,31,7.30
2010,01,28,18,33,7.30
2010,01,28,18,34,7.30
2010,01,28,18,35,7.30
2010,01,28,18,36,7.30
2010,01,28,18,37,7.30
2010,01,28,18,39,7.30
2010,01,28,18,40,7.30
2010,01,28,18,41,7.30
2010,01,28,18,42,7.30
2010,01,28,18,43,7.30
2010,01,28,18,45,7.30
2010,01,28,18,46,7.30
2010,01,28,18,47,7.30
2010,01,28,18,48,7.30
2010,01,28,18,50,7.30
2010,01,28,18,52,7.40
2010,01,28,18,53,7.40
2010,01,28,18,54,7.40
2010,01,28,18,55,7.40
2010,01,28,18,57,7.40
2010,01,28,18,58,7.40
2010,01,28,19,00,7.40
2010,01,28,19,02,7.40
2010,01,28,19,03,7.40
2010,01,28,19,04,7.40
2010,01,28,19,05,7.40
2010,01,28,19,06,7.40
2010,01,28,19,08,7.40
2010,01,28,19,10,7.50
2010,01,28,19,11,7.50
2010,01,28,19,13,7.50
2010,01,28,19,14,7.50
2010,01,28,19,15,7.50
2010,01,28,19,16,7.50
2010,01,28,19,17,7.50
2010,01,28,19,19,7.50
2010,01,28,19,20,7.50
2010,01,28,19,21,7.50
2010,01,28,19,22,7.50
2010,01,28,19,23,7.50
2010,01,28,19,24,7.50
2010,01,28,19,26,7.50
2010,01,28,19,27,7.50
2010,01,28,19,28,7.50
2010,01,28,19,31,7.50
2010,01,28,19,32,7.50
2010,01,28,19,33,7.50
2010,01,28,19,35,7.50
2010,01,28,19,36,7.50
2010,01,28,19,37,7.50
2010,01,28,19,38,7.50
2010,01,28,19,39,7.50
2010,01,28,19,41,7.50
2010,01,28,19,42,7.50
2010,01,28,19,43,7.50
2010,01,28,19,44,7.50
2010,01,28,19,46,7.50
2010,01,28,19,47,7.50
2010,01,28,19,48,7.50
2010,01,28,19,49,7.50
2010,01,28,19,52,7.50
2010,01,28,19,53,7.50
2010,01,28,19,54,7.50
2010,01,28,19,55,7.50
2010,01,28,19,56,7.50
2010,01,28,19,58,7.50
2010,01,28,20,00,7.60
2010,01,28,20,03,7.60
2010,01,28,20,04,7.60
2010,01,28,20,05,7.60
2010,01,28,20,06,7.60
2010,01,28,20,08,7.60
2010,01,28,20,09,7.60
2010,01,28,20,10,7.60
2010,01,28,20,11,7.60
2010,01,28,20,12,7.60
2010,01,28,20,14,7.60
2010,01,28,20,15,7.60
2010,01,28,20,16,7.60
2010,01,28,20,17,7.60
2010,01,28,20,18,7.60
2010,01,28,20,20,7.60
2010,01,28,20,21,7.60
2010,01,28,20,22,7.60
2010,01,28,20,23,7.60
2010,01,28,20,24,7.70
2010,01,28,20,26,7.70
2010,01,28,20,27,7.70
2010,01,28,20,28,7.70
2010,01,28,20,30,7.70
2010,01,28,20,31,7.70
2010,01,28,20,32,7.70
2010,01,28,20,34,7.70
2010,01,28,20,35,7.70
2010,01,28,20,36,7.70
2010,01,28,20,37,7.70
2010,01,28,20,39,7.70
2010,01,28,20,40,7.70
2010,01,28,20,41,7.70
2010,01,28,20,42,7.70
2010,01,28,20,43,7.70
2010,01,28,20,44,7.70
2010,01,28,20,46,7.70
2010,01,28,20,47,7.70
2010,01,28,20,48,7.70
2010,01,28,20,49,7.70
2010,01,28,20,52,7.70
2010,01,28,20,53,7.70
2010,01,28,20,54,7.70
2010,01,28,20,55,7.70
2010,01,28,20,57,7.70
2010,01,28,20,58,7.70
2010,01,28,20,59,7.70
2010,01,28,21,02,7.70
2010,01,28,21,03,7.70
2010,01,28,21,04,7.70
2010,01,28,21,05,7.70
2010,01,28,21,07,7.70
2010,01,28,21,08,7.70
2010,01,28,21,10,7.70
2010,01,28,21,11,7.70
2010,01,28,21,12,7.70
2010,01,28,21,14,7.70
2010,01,28,21,15,7.70
2010,01,28,21,16,7.70
2010,01,28,21,17,7.70
2010,01,28,21,19,7.70
2010,01,28,21,20,7.70
2010,01,28,21,21,7.70
2010,01,28,21,22,7.70
2010,01,28,21,24,7.70
2010,01,28,21,25,7.70
2010,01,28,21,26,7.70
2010,01,28,21,27,7.70
2010,01,28,21,28,7.70
2010,01,28,21,29,7.70
2010,01,28,21,32,7.70
2010,01,28,21,33,7.70
2010,01,28,21,34,7.70
2010,01,28,21,35,7.70
2010,01,28,21,37,7.60
2010,01,28,21,38,7.60
2010,01,28,21,40,7.60
2010,01,28,21,42,7.60
2010,01,28,21,43,7.60
2010,01,28,21,44,7.60
2010,01,28,21,45,7.70
2010,01,28,21,47,7.60
2010,01,28,21,48,7.60
2010,01,28,21,50,7.60
2010,01,28,21,51,7.60
2010,01,28,21,52,7.60
2010,01,28,21,54,7.60
2010,01,28,21,55,7.60
2010,01,28,21,56,7.60
2010,01,28,21,57,7.70
2010,01,28,21,59,7.60
2010,01,28,22,00,7.70
2010,01,28,22,01,7.70
2010,01,28,22,02,7.60
2010,01,28,22,04,7.70
2010,01,28,22,05,7.70
2010,01,28,22,06,7.60
2010,01,28,22,07,7.60
2010,01,28,22,08,7.60
2010,01,28,22,11,7.60
2010,01,28,22,12,7.60
2010,01,28,22,13,7.60
2010,01,28,22,15,7.60
2010,01,28,22,16,7.60
2010,01,28,22,17,7.60
2010,01,28,22,18,7.60
2010,01,28,22,19,7.60
2010,01,28,22,22,7.60
2010,01,28,22,23,7.60
2010,01,28,22,24,7.60
2010,01,28,22,25,7.70
2010,01,28,22,27,7.70
2010,01,28,22,28,7.70
2010,01,28,22,30,7.70
2010,01,28,22,31,7.70
2010,01,28,22,32,7.70
2010,01,28,22,34,7.70
2010,01,28,22,35,7.70
2010,01,28,22,36,7.70
2010,01,28,22,37,7.70
2010,01,28,22,38,7.70
2010,01,28,22,40,7.70
2010,01,28,22,41,7.70
2010,01,28,22,42,7.60
2010,01,28,22,43,7.60
2010,01,28,22,44,7.60
2010,01,28,22,46,7.60
2010,01,28,22,47,7.60
2010,01,28,22,48,7.60
2010,01,28,22,49,7.60
2010,01,28,22,51,7.60
2010,01,28,22,52,7.60
2010,01,28,22,53,7.60
2010,01,28,22,54,7.60
2010,01,28,22,56,7.60
2010,01,28,22,57,7.60
2010,01,28,22,58,7.60
2010,01,28,23,00,7.60
2010,01,28,23,02,7.60
2010,01,28,23,03,7.60
2010,01,28,23,04,7.60
2010,01,28,23,05,7.60
2010,01,28,23,06,7.60
2010,01,28,23,08,7.60
2010,01,28,23,10,7.60
2010,01,28,23,11,7.60
2010,01,28,23,13,7.60
2010,01,28,23,14,7.60
2010,01,28,23,15,7.60
2010,01,28,23,16,7.60
2010,01,28,23,17,7.60
2010,01,28,23,19,7.60
2010,01,28,23,20,7.60
2010,01,28,23,21,7.60
2010,01,28,23,22,7.50
2010,01,28,23,23,7.50
2010,01,28,23,24,7.50
2010,01,28,23,26,7.50
2010,01,28,23,27,7.50
2010,01,28,23,28,7.40
2010,01,28,23,30,7.40
2010,01,28,23,31,7.40
2010,01,28,23,32,7.40
2010,01,28,23,34,7.40
2010,01,28,23,35,7.40
2010,01,28,23,36,7.40
2010,01,28,23,37,7.40
2010,01,28,23,38,7.40
2010,01,28,23,40,7.50